Location: Demmingen
(48.6757°N, 10.4375°E)
Time: 02:58:00
(UTC+00:00)

Daily predictions for brighter satellites

Satellite Brightness Start Highest point End
(mag) Time Altitude Azimuth Time Altitude Azimuth Time Altitude Azimuth
Cosmos 2228 Rocket 3.0 00:05:20 48° SSW 00:06:32 79° W 00:11:03 10° N
Meteor 1-21 4.3 00:04:42 36° S 00:07:06 74° E 00:12:51 10° NNE
Helios 1A Rocket 2.9 00:07:44 44° SE 00:08:50 69° ENE 00:12:41 10° N
Cosmos 2082 Rocket 2.2 00:07:01 37° S 00:09:18 72° ESE 00:15:01 10° NNE
Meteor 1-12 Rocket 4.5 00:03:35 10° NNW 00:09:22 60° W 00:11:47 35° SSW
Cosmos 1833 Rocket 3.7 00:08:10 19° WSW 00:11:47 40° NW 00:17:04 10° NNE
BREEZE-M DEB (TANK) 3.4 00:13:11 42° SW 00:13:46 46° SSW 00:21:36 10° SE
Cosmos 724 4.4 00:12:02 27° SW 00:15:18 70° NW 00:21:09 10° NE
CZ-2D R/B 4.0 00:13:32 10° NE 00:17:43 22° E 00:21:24 12° SE
Cosmos 1908 Rocket 4.2 00:15:42 10° N 00:20:02 50° ENE 00:22:20 25° SE
Cosmos 2360 Rocket 4.1 00:16:25 10° NNW 00:21:18 28° NE 00:26:10 10° ESE
USA 267 3.4 00:17:31 10° NE 00:24:02 72° NNW 00:30:21 11° WSW
DELTA 2 R/B (1) 4.3 00:26:16 32° S 00:26:16 32° S 00:30:54 10° ESE
Cosmos 1455 2.7 00:26:43 10° N 00:30:05 47° ENE 00:31:18 32° SE
Cosmos 1733 Rocket 3.6 00:26:49 10° NNW 00:30:55 43° W 00:31:54 37° SW
Cosmos 841 Rocket 3.7 00:26:58 10° NNW 00:32:12 68° ENE 00:36:21 16° SSE
Resurs 1-4 Rocket 3.5 00:28:02 10° NE 00:32:35 29° E 00:36:00 15° SE
Cosmos 1400 Rocket 3.6 00:32:16 32° WSW 00:33:19 39° WNW 00:37:06 10° N
Nimbus 7 Rocket 4.5 00:27:34 10° NNE 00:33:34 76° WNW 00:36:43 30° SSW
H-2A R/B 3.9 00:33:26 10° NNW 00:36:49 22° WNW 00:38:59 16° W
Cosmos 2278 3.8 00:35:46 10° NNW 00:41:32 81° ENE 00:46:48 12° SSE
H-2A R/B 4.5 00:38:20 10° NNE 00:42:02 35° E 00:43:49 23° SE
NOSS 3-4 (A) 4.3 00:36:47 10° NW 00:43:15 41° WSW 00:47:10 25° S
NOSS 3-4 (C) 4.3 00:36:53 10° NW 00:43:21 41° WSW 00:47:19 25° S
Cosmos 1346 Rocket 3.2 00:40:53 10° NNW 00:44:35 44° W 00:45:17 39° SW
Cosmos 676 Rocket 4.0 00:42:47 32° SSW 00:45:18 84° WNW 00:50:41 10° NNE
SL-08 R/B 4.5 00:44:05 29° SSW 00:47:29 78° W 00:53:40 10° N
Cosmos 468 Rocket 4.4 00:42:41 10° NNW 00:47:46 47° WSW 00:49:48 31° SSW
Okean 2 3.2 00:49:49 40° SSW 00:51:08 81° W 00:55:08 10° N
Cosmos 1954 Rocket 4.2 00:48:42 29° SW 00:51:23 64° WNW 00:56:41 10° NNE
Cosmos 1745 Rocket 4.1 00:48:37 24° S 00:52:32 75° E 00:58:49 10° NNE
CZ-2C R/B 3.2 00:47:50 10° SE 00:52:50 53° ENE 00:57:52 10° N
Meteor 1-4 Rocket 1.9 00:53:08 62° S 00:53:32 79° E 00:56:31 10° NNE
Cosmos 2333 Rocket 3.5 00:48:51 10° NNW 00:54:15 41° NE 00:59:39 10° ESE
Cosmos 1300 4.4 00:56:54 10° NW 00:59:14 17° W 00:59:22 17° W
Cosmos 2322 Rocket 2.8 00:53:38 10° NNW 00:59:14 58° ENE 01:04:49 10° SE
Cosmos 1703 Rocket 3.5 00:58:55 32° S 01:00:58 89° WNW 01:05:26 10° N
USA 234 3.7 00:56:31 17° SSE 01:01:00 38° SW 01:07:04 10° WNW
BREEZE-M R/B 4.5 00:59:28 23° S 01:02:17 39° SE 01:15:19 10° ENE
Cosmos 1953 2.4 01:00:13 10° NNW 01:04:02 53° W 01:05:20 35° SSW
SL-8 R/B 4.0 01:01:03 10° W 01:05:32 41° SSW 01:10:01 10° SE
NPP 3.8 01:01:37 10° NNE 01:07:01 68° ESE 01:10:33 22° S
SL-27 R/B 4.3 01:08:51 12° SE 01:10:04 15° E 01:11:50 10° ENE
Cosmos 1980 Rocket 3.5 01:08:26 10° NW 01:12:38 21° W 01:14:01 20° WSW
Nadezhda 1 Rocket 4.1 01:07:30 10° NNW 01:13:51 64° W 01:18:17 20° S
Cosmos 1242 Rocket 2.7 01:13:25 30° SSE 01:14:25 45° E 01:17:12 10° NNE
Cosmos 1300 Rocket 3.5 01:12:52 10° N 01:17:14 82° E 01:20:24 18° SSE
ADEOS II 2.9 01:14:46 10° NNE 01:19:49 45° E 01:24:13 13° S
MOZ.5/SAFIR/RUBIN 5/SL-8 4.2 01:18:20 26° SSW 01:20:36 43° W 01:25:08 10° NNW
Cosmos 1408 2.9 01:21:25 24° SSE 01:22:53 44° E 01:25:46 10° NNE
COSMOS 2406 4.0 01:19:32 18° WSW 01:23:31 44° NW 01:29:03 10° NNE
IDEFIX/ARIANE 42P 2.6 01:19:36 10° NNE 01:24:54 85° WNW 01:28:29 21° SSW
Lacrosse 5 rocket 1.2 01:21:35 10° WNW 01:25:36 56° SW 01:29:26 10° SE
ALOS 3.9 01:23:29 10° NE 01:27:31 29° E 01:31:32 10° SSE
EXPRESS MD2 3.4 01:27:55 31° S 01:28:44 39° SE 01:32:38 10° ENE
Okean 1-7 4.2 01:30:04 20° WSW 01:32:09 30° WNW 01:35:59 10° N
ATLAS 2AS CENTAUR R/B 3.4 01:34:00 10° NW 01:40:49 59° NE 01:47:23 10° ESE
Cosmos 1315 Rocket 3.7 01:39:37 21° WSW 01:41:34 34° WNW 01:45:11 10° N
SJ 16-02 1.6 01:39:50 17° S 01:43:00 60° ESE 01:47:17 10° NNE
CZ-2C R/B 3.4 01:37:32 10° NNE 01:43:24 80° ESE 01:48:25 14° S
SL-16 R/B 2.5 01:38:09 10° NW 01:43:34 47° WSW 01:48:57 10° S
Cosmos 1850 Rocket 4.2 01:46:14 18° SW 01:50:05 62° WNW 01:55:19 10° NNE
Cosmos 2333 4.4 01:44:57 10° NNW 01:50:42 78° ENE 01:56:27 10° SSE
Cosmos 2082 Rocket 3.8 01:49:12 10° W 01:53:56 26° NW 01:58:42 10° NNE
Cosmos 1709 Rocket 4.2 01:49:42 16° SSW 01:54:42 59° WNW 02:01:01 10° N
Cosmos 1741 Rocket 4.3 01:51:18 18° SW 01:55:12 59° WNW 02:00:26 10° NNE
SL-16 R/B 2.6 01:49:56 10° SSE 01:56:12 87° WSW 02:02:32 10° NNW
Cosmos 2219 Rocket 2.7 01:51:16 10° NNW 01:56:54 65° ENE 02:02:32 10° SE
Cosmos 1782 Rocket 4.4 01:53:01 10° NNW 01:56:57 32° W 01:59:39 17° SW
Cosmos 2181 Rocket 4.0 01:51:12 10° N 01:57:37 85° W 02:03:53 10° S
CZ-2D R/B 2.3 01:52:44 10° N 01:58:10 63° WNW 02:02:42 15° SSW
Cosmos 1703 3.1 02:00:01 15° SSW 02:03:03 81° W 02:06:48 10° N
Meteor 1-28 Rocket 3.0 01:59:49 10° S 02:03:22 66° WSW 02:06:55 10° NNW
Cosmos 1455 4.1 02:02:42 10° WNW 02:04:08 12° W 02:05:04 11° WSW
AQUA 3.8 01:59:41 10° NNE 02:04:27 89° ESE 02:08:57 11° SSW
COSMOS 2428 4.2 01:59:47 10° NNW 02:05:09 41° NE 02:10:30 10° ESE
Cosmos 2360 Rocket 2.2 02:00:06 10° NNW 02:05:43 63° WSW 02:11:18 10° SSE
Cosmos 968 Rocket 3.6 02:02:10 15° SW 02:06:18 65° WNW 02:11:26 10° NNE
USA 267 4.3 02:00:28 10° ENE 02:06:35 45° N 02:12:43 10° WNW
Genesis I 2.9 02:05:37 17° SW 02:08:14 88° NW 02:11:49 10° NE
Meteor 1-24 Rocket 3.9 02:02:50 10° S 02:08:53 90° WSW 02:14:56 10° NNE
RESURS DK-1 2.2 02:05:50 10° NNW 02:09:54 73° WSW 02:13:57 10° SSE
MSX 4.3 02:05:34 10° N 02:11:02 47° WNW 02:16:00 12° SW
DELTA 2 R/B (1) 4.5 02:06:58 10° WSW 02:11:38 28° SSW 02:16:17 10° SE
Resurs 1-4 Rocket 2.6 02:07:33 10° N 02:12:32 45° WNW 02:17:04 12° SW
SAR-Lupe-4 3.6 02:11:23 10° NNE 02:14:59 79° E 02:18:33 10° S
FENGYUN 3A 3.8 02:16:45 10° N 02:22:04 62° WNW 02:27:21 10° SSW
IRAS Rocket 4.3 02:17:08 10° NNE 02:22:41 88° ESE 02:28:10 10° SSW
Geosat 4.0 02:26:13 10° SSE 02:31:14 86° WSW 02:36:18 10° NNW
CZ-2C R/B 3.8 02:29:18 10° SW 02:33:25 24° W 02:37:34 10° NW
Cosmos 2221 Rocket 3.7 02:29:30 10° S 02:34:03 90° SE 02:38:37 10° N
ASTEX 1 4.2 02:30:05 10° SSE 02:34:52 54° ENE 02:39:40 10° N
SAR-Lupe-1 4.2 02:33:52 10° N 02:37:24 60° WNW 02:40:55 10° SSW
Cosmos 1825 2.1 02:34:23 10° S 02:37:46 72° E 02:41:13 10° NNE
Sich 1 Rocket 3.7 02:33:55 10° NNW 02:38:23 61° W 02:42:46 10° S
Cosmos 2333 Rocket 2.7 02:33:14 10° NW 02:38:31 40° WSW 02:43:49 10° S
Cosmos 2098 Rocket 4.2 02:33:55 10° NNW 02:38:42 39° W 02:44:15 10° SSW
Cosmos 1295 Rocket 4.5 02:34:25 10° S 02:40:34 82° W 02:46:42 10° N
Cosmos 2151 Rocket 3.8 02:36:30 10° NNW 02:40:53 53° W 02:45:12 10° S
Cosmos 2322 Rocket 3.2 02:38:17 10° NW 02:42:53 26° WSW 02:47:29 10° SSW
YAOGAN 6 3.9 02:39:49 10° NNE 02:42:55 35° E 02:45:58 10° SSE
SL-27 R/B 3.4 02:40:34 10° WSW 02:42:57 24° WNW 02:45:21 10° N
Cosmos 1892 2.4 02:40:24 10° SSW 02:43:54 81° W 02:47:25 10° N
Cosmos 1455 Rocket 4.4 02:39:48 10° N 02:44:00 44° ENE 02:48:11 10° SSE
Cosmos 1025 Rocket 3.8 02:41:37 10° S 02:45:53 54° E 02:50:10 10° NNE
Meteor 2-5 Rocket 4.3 02:43:45 10° SW 02:49:25 47° WNW 02:55:10 10° N
